Temperature
19 19 19 19 19 19 19 19 19 19 19 19 19 19 19 19 19 19 18 18 18 18 18 18 18 18 18 18 17 17 17 17 17 17 17 17 17 17 17 16 16 16 16
19 19 19 19 19 19 19 19 19 19 19 19 19 19 19 19 19 19 18 18 18 18 18 18 18 18 18 18 17 17 17 17 17 17 17 17 17 17 17 16 16 16 16
19 19 19 19 19 19 19 19 19 19 19 19 19 19 19 19 19 19 19 18 18 18 18 18 18 18 18 18 17 17 17 17 17 17 17 17 17 17 16 16 16 16 16
19 19 19 19 19 19 19 19 19 19 19 19 19 19 19 19 19 19 19 18 18 18 18 18 18 18 18 18 18 17 17 17 17 17 17 17 17 17 16 16 16 16 16
19 19 19 19 19 19 19 19 19 19 19 19 19 19 19 19 19 19 19 19 18 18 18 18 18 18 18 18 18 17 17 17 17 17 17 17 17 16 16 16 16 16 16
19 19 19 19 19 19 19 19 19 19 19 19 19 19 19 19 19 19 19 19 18 18 18 18 18 18 18 18 18 17 17 17 17 17 17 17 17 16 16 16 16 16 16
19 19 19 19 19 19 19 19 19 19 19 19 19 19 19 19 19 19 19 19 18 18 18 18 18 18 18 18 18 17 17 17 17 17 17 17 17 16 16 16 16 16 16
19 19 19 19 19 19 19 19 19 19 19 19 19 19 18 18 19 19 19 19 18 18 18 18 18 18 18 18 18 18 17 17 17 17 17 17 17 17 16 16 16 16 16
19 19 19 19 19 19 19 19 19 19 19 19 19 19 18 18 18 19 19 19 18 18 18 18 18 18 18 18 18 18 17 17 17 17 17 17 17 17 16 16 16 16 16
19 19 19 19 19 19 19 19 19 19 19 19 19 19 19 18 18 18 18 18 18 18 18 18 18 18 18 18 18 18 17 17 17 17 17 17 17 17 16 16 16 16 16
19 19 19 19 19 19 19 19 19 19 19 19 19 19 19 18 18 18 18 18 18 18 18 18 18 18 18 18 18 18 17 17 17 17 17 17 17 17 16 16 16 16 16
19 19 19 19 19 19 19 19 19 19 18 18 18 18 18 18 18 18 18 18 18 18 18 18 18 18 18 18 17 17 17 17 17 17 17 16 16 16 16 16 16 16 16
19 19 19 19 19 18 18 18 18 18 18 18 18 18 18 18 18 18 18 18 17 18 18 18 17 17 17 17 17 17 17 17 17 17 17 17 17 16 16 16 16 16 16
19 19 19 19 18 18 18 18 18 18 18 18 18 18 18 18 18 18 18 18 17 17 17 17 17 17 17 17 17 17 17 17 17 17 17 17 17 16 16 16 16 16 16
19 18 18 18 18 18 18 18 18 18 18 18 18 18 18 18 18 18 18 18 17 17 17 17 17 17 17 17 17 17 17 17 17 17 17 17 16 16 16 16 16 16 16
18 18 18 18 18 18 18 18 18 18 18 18 18 18 18 18 18 17 17 17 17 17 17 17 17 17 17 17 16 17 17 17 16 17 17 17 16 16 16 16 16 16 16
18 18 18 18 18 18 18 18 18 18 17 17 17 17 17 17 17 17 17 17 17 17 17 17 17 17 17 17 16 16 16 16 16 16 16 16 16 16 16 16 16 16 15
18 18 18 18 18 18 17 17 17 17 17 17 17 17 17 17 17 17 17 17 17 17 17 17 17 17 16 16 16 16 16 16 16 16 16 16 16 16 16 16 15 15 15
18 18 17 17 17 17 17 17 17 17 17 17 17 17 17 16 16 16 16 16 16 16 16 16 16 16 16 16 16 16 16 16 16 16 16 16 16 16 16 15 15 15 15
18 17 17 17 17 17 17 17 17 17 17 16 16 16 16 16 16 16 16 16 16 15 16 16 16 16 16 15 15 15 16 16 15 15 15 15 15 15 15 15 15 15 15
17 17 17 17 17 17 16 16 16 16 16 16 16 16 16 16 16 15 15 15 15 15 15 15 15 15 15 15 15 15 15 15 15 15 15 15 15 15 15 15 15 15 15
17 17 17 17 16 16 16 16 16 16 16 16 16 16 15 15 15 15 15 15 15 15 15 15 15 15 15 15 15 15 14 14 15 15 15 15 15 15 15 15 15 15 15
17 16 16 16 16 16 16 16 16 15 15 15 15 15 15 15 15 15 15 15 15 14 14 14 14 14 14 14 14 14 14 14 14 14 14 14 15 15 15 15 15 15 14
16 16 16 16 16 16 15 15 15 15 15 15 15 15 15 15 15 14 14 14 14 14 14 14 14 14 14 14 14 14 14 14 14 14 14 14 14 14 15 14 14 14 14
16 16 15 15 15 15 15 15 15 15 15 15 14 14 14 14 14 14 14 14 14 14 14 14 14 14 14 14 14 14 14 13 14 14 14 13 14 14 14 14 14 14 14
15 15 15 15 15 15 15 15 15 15 15 14 14 14 14 14 14 14 14 14 14 14 14 14 14 14 13 13 13 13 13 13 13 13 13 13 13 13 13 14 14 14 14
Wind_Speed
2 2 2 2 3 4 3 2 2 2 2 3 3 3 3 5 6 7 8 12 12 11 11 11 11 11 10 10 9 9 8 8 8 10 9 9 9 8 8 8 8 8 9
3 2 2 1 2 4 4 3 2 2 2 2 2 2 3 5 6 7 8 9 11 11 11 11 11 10 10 10 9 8 8 8 8 9 10 10 10 9 9 8 8 8 9
5 3 2 2 2 4 3 2 2 1 1 1 1 1 2 4 5 6 7 7 8 9 10 10 11 11 10 10 9 9 8 8 9 9 9 9 10 10 10 9 9 9 9
5 3 2 2 2 2 1 1 0 0 1 1 1 1 1 2 4 5 6 6 6 7 8 9 10 10 11 10 9 9 8 8 9 9 9 10 10 10 10 10 10 10 10
4 3 2 2 1 1 1 1 1 1 0 1 1 1 1 2 3 4 4 5 7 7 6 8 10 10 10 10 9 9 9 9 9 9 9 10 10 10 10 11 11 11 11
4 3 2 1 1 1 1 0 1 1 1 1 1 1 1 1 1 2 3 4 5 7 7 7 7 8 10 10 9 9 9 9 9 10 10 10 10 10 10 11 11 11 10
3 2 1 1 2 2 1 1 1 1 0 1 2 3 3 2 1 1 1 2 3 5 6 6 6 6 6 9 10 10 10 10 10 10 10 10 10 10 10 10 10 10 11
3 3 2 2 1 1 0 0 1 1 0 1 2 1 2 4 3 1 1 2 2 2 3 5 6 6 7 6 8 10 10 10 10 10 10 10 10 10 10 10 10 10 10
3 3 3 2 2 2 1 1 1 2 1 1 1 3 2 2 2 2 1 1 1 1 2 3 5 7 7 7 6 8 9 10 10 10 10 11 11 10 9 10 10 10 10
2 2 3 3 2 2 1 1 1 2 2 0 1 0 2 3 2 1 2 2 1 1 2 2 3 5 7 7 7 7 7 8 8 9 10 10 10 10 10 10 10 10 10
1 2 2 2 2 2 2 1 1 1 2 2 1 0 0 1 2 2 2 3 2 2 1 2 2 3 5 6 6 7 7 7 8 8 9 10 10 10 10 10 10 10 11
1 1 2 2 2 2 2 2 2 1 1 1 1 1 2 1 2 2 2 2 2 2 1 1 1 2 4 5 6 8 8 8 8 8 9 10 10 10 10 10 10 10 10
2 2 2 2 2 2 2 2 1 1 1 1 2 1 1 2 2 2 2 1 1 2 1 1 1 2 4 5 5 7 8 9 9 9 9 11 10 10 10 9 9 9 9
3 3 2 2 2 2 2 2 1 1 1 1 2 2 1 2 1 2 3 2 0 2 2 2 1 2 3 5 6 7 7 9 10 10 10 10 10 10 10 9 9 9 9
3 3 2 2 2 2 2 2 1 1 1 1 1 1 1 1 1 1 2 3 3 2 2 3 2 2 2 4 5 5 6 8 10 10 10 10 10 11 10 10 10 9 9
2 2 2 2 2 2 2 2 1 1 1 1 1 1 1 1 1 1 1 1 2 3 3 3 3 2 2 3 5 6 7 8 10 10 10 10 11 11 11 11 11 11 11
2 2 2 2 2 2 2 1 2 2 1 2 2 1 2 1 1 1 1 1 1 2 3 3 2 1 0 2 2 3 5 6 7 10 11 11 11 11 12 12 12 12 12
2 2 2 2 2 2 2 2 2 1 1 1 2 1 2 2 1 1 1 1 1 2 3 3 2 1 2 2 2 2 3 5 6 9 11 12 12 12 12 13 13 12 13
1 1 1 1 1 1 1 2 2 1 2 2 2 2 2 1 2 1 1 1 1 1 1 2 3 2 2 1 1 2 2 2 5 6 9 11 12 12 12 13 12 12 13
1 1 1 2 1 1 2 1 1 2 2 2 1 2 2 2 2 2 2 2 1 1 1 1 2 2 2 1 0 1 2 2 3 3 4 6 9 11 12 13 14 14 13
1 1 1 0 0 1 1 2 2 2 2 2 2 2 3 3 3 3 2 2 2 2 1 1 2 2 2 1 2 2 3 3 4 2 2 3 4 5 7 10 12 14 14
1 1 1 1 0 1 1 2 2 1 1 2 3 3 3 3 3 3 4 4 4 3 3 3 3 3 4 3 2 2 2 2 3 2 2 4 3 5 6 7 11 13 13
1 1 1 1 1 2 2 2 2 1 2 2 3 2 2 2 2 2 3 4 3 4 5 5 4 5 5 4 3 3 3 3 5 4 2 4 3 5 6 8 11 12 13
2 2 1 1 1 2 2 2 2 1 1 2 2 2 2 2 2 2 2 2 3 4 5 5 6 6 6 5 5 5 5 4 4 4 3 4 4 4 5 5 9 11 12
1 1 1 1 1 2 2 1 1 1 1 2 2 2 2 2 3 3 2 3 4 5 6 6 6 7 8 8 6 3 2 2 4 4 3 3 3 3 3 4 6 10 12
1 0 0 0 1 1 2 1 2 1 1 2 2 2 3 3 3 2 2 2 4 5 4 4 5 6 5 6 6 5 5 3 3 4 3 3 2 1 3 3 3 3 6
Wind_Direction
179 191 211 207 211 210 215 232 243 260 269 267 255 217 184 173 177 181 191 193 194 196 198 199 201 201 202 201 201 202 207 206 206 196 197 198 197 193 187 185 186 184 183
183 183 200 217 218 218 217 221 238 246 260 268 253 204 174 164 176 182 184 192 196 198 203 206 207 205 202 201 200 203 209 205 200 196 197 197 195 191 186 187 185 181 182
180 176 180 202 225 221 216 218 245 256 272 273 274 217 178 168 176 181 186 191 199 205 209 211 211 208 205 206 206 209 211 207 201 198 197 193 192 191 190 191 187 184 187
182 174 169 207 216 199 184 178 182 220 306 313 286 249 207 172 175 179 182 187 193 203 211 213 211 210 210 210 210 210 209 207 198 198 197 194 193 194 196 194 190 190 194
172 167 177 214 212 158 155 213 148 163 207 293 275 265 230 190 186 186 186 193 195 199 202 209 212 211 211 213 213 212 212 208 201 200 201 198 198 200 201 200 198 197 197
162 152 154 178 147 124 104 125 139 134 194 225 310 0 316 241 201 193 199 197 199 199 195 202 209 215 217 218 217 215 213 208 206 208 209 206 204 204 204 204 203 201 199
162 145 143 139 139 143 174 164 138 119 358 71 53 11 359 356 314 230 203 195 204 203 192 198 202 204 213 220 220 218 218 215 213 214 212 208 208 209 207 204 202 201 202
166 157 153 157 151 142 131 139 117 116 10 86 111 82 5 351 344 304 238 195 211 188 180 197 201 201 206 207 215 218 219 221 218 217 211 208 207 210 211 209 206 204 206
161 150 153 154 144 144 176 203 160 145 170 274 138 143 146 231 307 322 301 271 212 193 199 184 198 207 206 206 210 218 221 222 219 217 214 209 207 208 211 212 211 209 210
162 153 153 156 162 152 157 203 155 160 146 211 299 184 173 170 176 294 321 312 279 221 219 203 197 203 205 203 205 211 213 215 216 215 210 206 207 207 209 211 214 215 213
189 164 156 157 162 165 173 175 135 144 155 170 190 206 96 97 146 169 265 305 315 287 243 214 199 194 202 196 196 202 202 204 212 217 211 206 205 207 210 215 217 218 218
257 229 170 176 176 177 184 192 186 164 179 172 180 168 169 177 190 171 213 249 272 280 256 233 192 199 197 192 198 198 196 197 205 213 216 209 207 208 211 215 217 218 218
235 239 209 198 201 200 194 188 183 200 197 189 208 217 200 211 188 172 176 224 266 297 320 292 236 193 202 193 197 199 201 201 207 209 209 208 207 210 213 214 214 217 218
217 219 206 205 201 189 187 177 183 219 190 209 223 220 221 245 198 185 178 173 244 323 318 282 284 229 205 194 203 201 207 208 211 210 209 208 209 211 213 213 216 218 219
212 213 204 202 205 197 182 164 178 228 200 210 225 236 238 266 247 215 175 168 169 218 274 270 272 268 214 201 208 200 205 211 214 214 213 212 215 216 215 215 218 219 222
214 203 203 193 196 201 201 186 200 222 200 254 225 215 265 269 247 218 190 185 175 182 228 253 245 248 224 212 219 205 209 215 214 217 217 217 219 221 221 222 223 223 223
199 199 204 203 202 209 206 196 222 206 210 265 275 233 254 256 251 251 203 183 203 179 220 272 264 273 235 241 220 214 220 220 224 224 225 222 222 225 224 226 227 227 227
203 206 209 209 211 198 189 192 221 218 199 237 271 267 271 273 266 246 215 226 227 207 199 252 279 262 240 239 226 225 231 230 230 236 230 227 228 230 230 231 231 233 233
197 213 193 212 227 202 195 214 215 225 224 235 243 239 256 255 264 262 251 254 261 254 202 218 258 252 263 274 283 272 258 258 247 245 234 233 234 236 238 237 236 237 237
168 209 208 215 205 196 203 215 234 252 249 245 235 226 238 230 233 236 244 250 254 268 241 234 259 262 262 280 224 272 286 270 259 250 243 239 240 242 244 243 242 241 241
175 184 173 189 194 184 210 210 230 236 230 246 258 248 243 234 226 222 226 220 213 219 226 240 261 272 268 265 249 250 259 273 264 243 244 251 244 247 248 249 247 245 242
131 126 151 176 237 250 242 209 202 230 237 241 253 260 254 239 246 250 247 229 205 205 210 221 240 242 248 239 237 240 244 271 280 261 218 259 229 247 247 242 246 242 240
155 171 198 182 231 266 251 236 227 215 243 247 249 258 268 257 233 256 263 266 260 243 213 204 223 235 237 231 225 240 236 237 248 247 206 260 247 249 251 249 247 244 239
172 189 215 225 246 290 275 252 251 225 263 262 250 231 237 266 275 247 247 279 281 274 254 229 225 235 238 229 215 221 231 245 263 259 198 238 253 249 258 252 250 243 240
198 208 218 199 215 298 301 263 206 191 275 288 274 258 248 253 277 257 240 271 289 290 279 262 253 257 262 252 230 210 232 244 274 273 221 211 249 261 265 260 255 244 238
181 131 360 140 164 296 314 263 198 182 241 281 298 290 264 260 274 260 227 247 273 279 288 296 290 290 279 273 253 219 212 220 245 266 243 203 235 230 281 274 260 253 241
Height
1532 1532 1533 1533 1533 1533 1532 1532 1532 1531 1531 1530 1530 1531 1531 1531 1532 1532 1532 1532 1532 1532 1532 1532 1532 1532 1532 1531 1531 1530 1530 1529 1527 1528 1530 1532 1533 1534 1535 1536 1537 1539 1540
1532 1532 1533 1533 1533 1533 1533 1533 1532 1532 1531 1531 1531 1531 1531 1531 1531 1532 1532 1531 1531 1531 1531 1531 1531 1531 1531 1531 1530 1530 1529 1528 1528 1528 1530 1531 1532 1533 1534 1535 1537 1538 1539
1532 1532 1533 1533 1533 1533 1533 1532 1532 1532 1532 1531 1531 1531 1531 1531 1531 1532 1531 1531 1531 1531 1530 1530 1530 1530 1530 1530 1530 1529 1529 1528 1528 1528 1529 1530 1531 1532 1533 1534 1536 1537 1539
1532 1532 1532 1532 1532 1532 1532 1532 1532 1532 1532 1531 1531 1531 1531 1531 1531 1531 1531 1530 1530 1530 1530 1530 1529 1529 1529 1529 1529 1529 1528 1528 1528 1528 1529 1529 1530 1531 1533 1534 1535 1536 1537
1532 1532 1532 1532 1532 1532 1532 1532 1532 1532 1531 1531 1531 1531 1530 1530 1531 1530 1530 1530 1530 1529 1529 1529 1529 1528 1528 1528 1528 1528 1527 1527 1527 1528 1528 1529 1530 1531 1532 1533 1534 1535 1537
1531 1531 1531 1531 1531 1531 1531 1531 1531 1531 1531 1530 1530 1530 1530 1530 1530 1530 1529 1529 1529 1529 1528 1528 1528 1528 1527 1527 1527 1527 1527 1526 1527 1527 1527 1528 1529 1530 1531 1532 1533 1534 1535
1531 1530 1530 1530 1530 1530 1530 1530 1530 1530 1530 1530 1529 1529 1529 1529 1529 1529 1529 1528 1528 1528 1527 1527 1527 1527 1526 1526 1526 1526 1526 1526 1525 1526 1526 1527 1528 1528 1529 1531 1532 1533 1534
1530 1530 1529 1529 1529 1529 1529 1529 1529 1529 1529 1529 1529 1528 1529 1530 1528 1528 1528 1528 1527 1527 1527 1526 1526 1526 1525 1525 1525 1525 1524 1524 1524 1524 1525 1525 1526 1527 1528 1529 1530 1531 1532
1528 1528 1528 1528 1528 1528 1528 1528 1528 1528 1528 1528 1528 1529 1528 1528 1527 1527 1527 1527 1527 1526 1526 1525 1525 1524 1524 1524 1524 1523 1523 1523 1523 1523 1523 1523 1525 1525 1526 1527 1528 1528 1530
1527 1527 1527 1527 1527 1527 1527 1527 1527 1527 1527 1527 1527 1527 1528 1527 1527 1526 1526 1526 1526 1525 1525 1524 1524 1523 1523 1523 1522 1522 1522 1522 1522 1521 1521 1522 1523 1524 1524 1525 1526 1526 1527
1526 1526 1526 1525 1526 1526 1526 1526 1526 1526 1526 1525 1525 1525 1525 1526 1525 1525 1524 1524 1524 1524 1524 1523 1523 1522 1522 1522 1521 1521 1521 1521 1520 1520 1520 1520 1521 1522 1522 1523 1523 1524 1525
1525 1524 1524 1524 1524 1524 1524 1524 1525 1524 1524 1524 1524 1524 1524 1524 1523 1523 1523 1522 1522 1523 1523 1522 1522 1521 1521 1520 1520 1520 1520 1519 1519 1519 1519 1519 1520 1520 1520 1521 1521 1521 1522
1523 1523 1523 1523 1523 1523 1523 1523 1523 1523 1523 1522 1522 1522 1522 1522 1522 1522 1521 1521 1521 1521 1521 1521 1520 1520 1519 1519 1519 1519 1518 1518 1518 1517 1517 1518 1518 1518 1518 1519 1519 1519 1520
1521 1521 1521 1521 1521 1521 1521 1521 1521 1521 1521 1521 1521 1520 1520 1520 1520 1520 1520 1520 1519 1519 1519 1519 1519 1518 1518 1518 1517 1517 1516 1516 1516 1516 1515 1516 1516 1516 1516 1517 1517 1517 1518
1519 1519 1519 1519 1519 1519 1519 1519 1518 1519 1519 1518 1518 1518 1518 1518 1518 1518 1518 1518 1518 1517 1516 1516 1516 1516 1516 1516 1515 1515 1514 1514 1514 1514 1514 1514 1514 1514 1515 1515 1515 1515 1515
1517 1516 1516 1516 1516 1516 1516 1516 1516 1516 1516 1516 1516 1516 1516 1516 1516 1516 1516 1516 1516 1515 1514 1514 1514 1514 1514 1514 1513 1513 1513 1513 1512 1512 1512 1512 1512 1512 1512 1512 1512 1512 1513
1514 1514 1514 1514 1514 1514 1513 1513 1513 1513 1513 1513 1514 1514 1514 1514 1513 1513 1513 1513 1513 1513 1512 1511 1512 1512 1511 1511 1511 1511 1511 1510 1510 1510 1510 1510 1510 1510 1510 1510 1510 1510 1510
1511 1511 1511 1511 1511 1511 1511 1511 1511 1511 1510 1510 1511 1511 1511 1511 1511 1511 1510 1510 1510 1510 1510 1509 1509 1509 1508 1508 1508 1508 1508 1508 1508 1507 1507 1507 1507 1507 1507 1507 1507 1507 1507
1509 1509 1509 1508 1508 1508 1508 1508 1508 1508 1508 1508 1508 1508 1508 1508 1508 1507 1507 1507 1507 1507 1507 1506 1506 1506 1506 1506 1505 1505 1505 1505 1505 1504 1504 1504 1504 1504 1504 1504 1503 1503 1503
1506 1506 1506 1506 1505 1505 1505 1505 1505 1505 1505 1505 1505 1505 1505 1505 1505 1504 1504 1504 1504 1504 1504 1504 1503 1503 1503 1503 1502 1502 1502 1502 1502 1501 1501 1501 1501 1500 1500 1500 1500 1500 1500
1504 1503 1503 1503 1503 1502 1502 1502 1502 1502 1502 1502 1502 1502 1502 1502 1502 1502 1502 1501 1501 1501 1501 1501 1500 1500 1499 1499 1499 1499 1498 1498 1498 1498 1497 1497 1497 1497 1496 1496 1496 1495 1495
1501 1501 1500 1500 1500 1500 1500 1500 1500 1500 1500 1499 1499 1499 1499 1499 1499 1499 1498 1498 1498 1498 1497 1497 1497 1496 1496 1496 1496 1496 1496 1495 1494 1495 1493 1493 1493 1492 1492 1492 1491 1491 1491
1499 1498 1498 1498 1497 1497 1497 1497 1497 1497 1497 1497 1497 1496 1496 1496 1496 1495 1495 1495 1495 1494 1494 1494 1493 1493 1492 1493 1493 1492 1492 1492 1491 1491 1490 1488 1488 1488 1488 1487 1487 1487 1487
1497 1496 1496 1495 1495 1495 1495 1495 1494 1494 1494 1494 1494 1493 1493 1493 1493 1492 1492 1491 1490 1490 1490 1490 1490 1489 1489 1489 1489 1489 1488 1488 1487 1487 1486 1484 1484 1483 1483 1483 1483 1483 1482
1494 1494 1493 1493 1493 1493 1492 1492 1492 1491 1491 1491 1491 1490 1490 1489 1489 1489 1488 1487 1487 1486 1486 1486 1486 1486 1485 1485 1485 1485 1484 1483 1482 1482 1482 1481 1479 1479 1478 1478 1478 1478 1478
1493 1492 1491 1491 1490 1490 1489 1489 1489 1488 1488 1488 1487 1487 1487 1486 1486 1485 1485 1484 1483 1483 1483 1482 1482 1482 1481 1481 1481 1480 1480 1479 1478 1478 1478 1477 1475 1475 1474 1473 1474 1474 1473